Location: Marcé
(47.5801°N, 0.3280°W)
Time: 04:04:59
(UTC+01:00)

Courier 1B - Pass Details

Date: 08 December 2021
Orbit: 962 x 1209 km, 28.3° (Epoch: 26 January)

Event Time Altitude Azimuth Distance (km) Brightness Sun altitude
Rises 16:38:11 0° 227° (SW) 4,092 14.0 3.4°
Reaches altitude 10° 16:42:22 10° 207° (SSW) 3,106 11.6 2.9°
Maximum altitude 16:46:38 16° 173° (S) 2,652 10.3 2.3°
Drops below altitude 10° 16:50:50 10° 139° (SE) 3,029 10.1 1.8°
Sets 16:54:50 0° 119° (ESE) 3,941 10.4 1.2°
